[[{"header":{"parameterUnit":"m.s-1","parameterCategory":1,"la1":30.2991,"la2":30.254,"lo1":-89.0895,"lo2":-89.0444,"dy":0.0017,"dx":0.0017,"nx":28,"ny":28,"refTime":"2024-03-18T21:00:00:Z","depth":0,"parameterNumber":2,"parameterNumberName":"U-component_of_WINDS"},"data":[0,0,0,0,0,0,0,0,0,0,0,0,0,0,0,0,0,0,0,0,0,0,0,0,0,0,0,0,0,0,0,0,0,0,0,0,0,0,0,0,0,0,0,0,0,0,0,0,0,0,0,0,0,0,0,0,0,0,-0.6969,-0.6969,0,-0.6945,-0.6945,-0.6945,-0.6888,-0.6887,-0.6885,-0.6884,-0.6862,-0.6863,-0.6863,0,0,0,0,0,0,0,0,0,0,0,0,0,-0.6968,-0.6968,-0.6969,-0.6969,-0.6968,-0.6945,-0.6945,-0.6944,-0.6888,-0.6887,-0.6885,-0.6884,-0.6862,-0.6863,-0.6863,0,0,0,0,0,0,0,0,0,0,0,0,0,-0.6959,-0.6968,-0.6969,-0.6937,-0.6934,-0.6945,-0.6945,-0.6944,-0.6888,-0.6887,-0.6885,-0.6883,-0.6862,-0.6863,-0.6863,-0.6904,0,0,-0.6866,-0.6866,0,0,0,0,0,0,0,0,-0.6959,-0.6959,-0.6942,-0.694,-0.6936,-0.6918,-0.6936,-0.6931,-0.6889,-0.6906,-0.6884,-0.6882,-0.6882,-0.6881,-0.6881,-0.6903,-0.6902,-0.6866,-0.6866,-0.6867,-0.6867,0,0,0,0,0,0,0,-0.696,-0.696,-0.696,-0.6942,-0.6938,-0.6925,-0.6922,-0.6935,-0.6904,-0.6904,-0.69,-0.6898,-0.688,-0.688,-0.688,-0.6901,-0.6866,-0.6867,-0.6867,-0.6867,-0.6956,-0.6958,0,0,0,0,0,0,-0.6965,-0.6961,-0.696,-0.6959,-0.6944,-0.6927,-0.6923,-0.6925,-0.6904,-0.6899,-0.6899,-0.6895,-0.688,-0.6879,-0.6879,-0.6926,-0.6867,-0.6867,-0.6868,-0.6954,-0.6957,-0.6959,0,0,0,0,0,0,-0.6965,-0.6965,-0.6961,-0.6959,-0.6957,-0.6928,-0.6932,-0.6926,-0.6926,-0.69,-0.6895,-0.6905,-0.6878,-0.6878,-0.6898,-0.6924,-0.6868,-0.6868,-0.6952,-0.6955,-0.6958,-0.7019,0,0,0,0,0,0,-0.6965,-0.6966,-0.6981,-0.6959,-0.6957,-0.6981,-0.6933,-0.6927,-0.6927,-0.6921,-0.6904,-0.69,-0.6877,-0.6897,-0.6899,-0.6924,-0.6869,-0.695,-0.6953,-0.6957,-0.7015,-0.7024,-0.7031,0,0,0,0,0,-0.6966,-0.6999,-0.6982,-0.6982,-0.6975,-0.6982,-0.6981,-0.6954,-0.6929,-0.6944,-0.6928,-0.69,-0.6921,-0.69,-0.6901,-0.6927,-0.6948,-0.6952,-0.6957,-0.7011,-0.7022,-0.7031,0,0,0,0,0,0,-0.7025,-0.6996,-0.6976,-0.7003,-0.6996,-0.6972,-0.699,-0.6966,-0.6966,-0.6961,-0.6927,-0.6924,-0.6949,-0.694,-0.6917,-0.6965,-0.693,-0.6935,-0.6971,-0.6981,-0.6989,-0.6992,-0.687,0,0,0,0,0,-0.7041,-0.7049,-0.7023,-0.705,-0.7047,-0.7019,-0.7021,-0.7001,-0.6992,-0.6988,-0.6974,-0.6967,-0.6971,-0.6975,-0.6978,-0.7012,-0.7009,-0.7031,-0.7039,-0.7046,-0.7051,-0.707,-0.708,-0.6973,-0.6973,-0.6973,0,0,-0.7075,-0.706,-0.7067,-0.7061,-0.7053,-0.7062,-0.7017,-0.7029,-0.7036,-0.699,-0.7009,-0.6998,-0.6988,-0.7015,-0.7027,-0.7008,-0.708,-0.7052,-0.7058,-0.7059,-0.7075,-0.7086,-0.7095,-0.6976,-0.6975,-0.6975,0,0,-0.7142,-0.7131,-0.7152,-0.7144,-0.7132,-0.7113,-0.7118,-0.7099,-0.709,-0.7107,-0.7074,-0.7082,-0.709,-0.7085,-0.7083,-0.7147,-0.7123,-0.7149,-0.7194,-0.7212,-0.7221,-0.7228,-0.7253,-0.7262,-0.7154,-0.7154,-0.7154,0,-0.7186,-0.7198,-0.7166,-0.718,-0.718,-0.7138,-0.716,-0.7154,-0.7143,-0.7144,-0.7123,-0.7134,-0.7124,-0.715,-0.7166,-0.7165,-0.7171,-0.7152,-0.7222,-0.7229,-0.7235,-0.7258,-0.7268,-0.7158,-0.7157,-0.7157,-0.7157,0,-0.7253,-0.7262,-0.7281,-0.7272,-0.7273,-0.7291,-0.7263,-0.7267,-0.7247,-0.7231,-0.725,-0.7236,-0.7236,-0.724,-0.722,-0.7264,-0.7253,-0.7228,-0.7192,-0.725,-0.7271,-0.7279,-0.7163,-0.7161,-0.716,-0.7159,0,0,-0.7358,-0.733,-0.7338,-0.7333,-0.7316,-0.7323,-0.7339,-0.7338,-0.7344,-0.7338,-0.7352,-0.736,-0.7336,-0.7334,-0.7313,-0.7329,-0.7383,-0.7301,-0.7301,-0.7318,-0.7432,-0.7453,-0.7463,-0.7365,-0.7366,-0.7368,-0.7433,0,-0.7422,-0.7448,-0.742,-0.7452,-0.7461,-0.7421,-0.7435,-0.7427,-0.7412,-0.7418,-0.7402,-0.7409,-0.7376,-0.7375,-0.7389,-0.7373,-0.7405,-0.7368,-0.7379,-0.738,-0.7385,-0.7474,-0.7496,-0.7558,-0.7441,-0.7442,-0.7443,0,-0.7501,-0.7498,-0.7531,-0.7512,-0.7514,-0.7528,-0.7525,-0.753,-0.752,-0.7509,-0.7506,-0.7481,-0.7496,-0.746,-0.7482,-0.7457,-0.746,-0.7453,-0.7455,-0.7456,-0.7417,-0.748,-0.7577,-0.7588,-0.7456,-0.7455,-0.7454,0,-0.7576,-0.758,-0.76,-0.7597,-0.7575,-0.7586,-0.7578,-0.7565,-0.7567,-0.7564,-0.7565,-0.7565,-0.7566,-0.7566,-0.7542,-0.7517,-0.7567,-0.7528,-0.7559,-0.756,-0.7573,-0.7573,-0.7675,-0.7572,-0.7572,-0.7572,-0.7572,0,-0.7651,-0.7674,-0.7634,-0.7647,-0.7671,-0.7638,-0.7663,-0.765,-0.764,-0.765,-0.7615,-0.7626,-0.7592,-0.7599,-0.758,-0.7602,-0.7602,-0.7594,-0.7589,-0.7598,-0.76,-0.7601,-0.7597,-0.7574,-0.7574,-0.7573,-0.7573,0,-0.774,-0.7714,-0.7734,-0.7711,-0.7706,-0.7725,-0.7706,-0.7718,-0.77,-0.7714,-0.7715,-0.7688,-0.7695,-0.767,-0.7673,-0.766,-0.7693,-0.768,-0.7696,-0.7693,-0.7726,-0.7724,-0.7834,-0.7847,-0.7734,-0.7736,-0.7736,0,-0.7791,-0.7807,-0.7786,-0.779,-0.7783,-0.779,-0.7791,-0.7759,-0.7762,-0.7752,-0.7765,-0.7769,-0.777,-0.7783,-0.7765,-0.7767,-0.7755,-0.7793,-0.7755,-0.7764,-0.7757,-0.7758,-0.776,-0.7801,-0.7803,-0.7804,-0.7805,0,-0.7884,-0.787,-0.7873,-0.7872,-0.7874,-0.7871,-0.7866,-0.7872,-0.7838,-0.7843,-0.7849,-0.785,-0.7852,-0.7857,-0.7855,-0.7847,-0.7822,-0.7817,-0.7824,-0.7835,-0.7845,-0.7842,-0.772,-0.7815,-0.7814,-0.7813,-0.7812,-0.7812,-0.7957,-0.7969,-0.7957,-0.7961,-0.7953,-0.795,-0.796,-0.7943,-0.7947,-0.7947,-0.7928,-0.7938,-0.7928,-0.7922,-0.7917,-0.7925,-0.7908,-0.7918,-0.7921,-0.7925,-0.7932,-0.7842,-0.7925,-0.7924,-0.7924,-0.7924,-0.7924,0,-0.805,-0.8039,-0.8043,-0.8037,-0.8041,-0.8014,-0.8007,-0.8012,-0.8022,-0.8014,-0.8016,-0.8023,-0.8028,-0.8009,-0.8011,-0.8022,-0.801,-0.8024,-0.8024,-0.8022,-0.7946,-0.794,-0.8033,-0.8033,-0.8033,-0.8033,-0.8033,-0.8033,-0.8099,-0.8119,-0.8104,-0.8121,-0.811,-0.812,-0.8118,-0.8115,-0.8109,-0.8119,-0.8122,-0.8109,-0.8097,-0.8098,-0.8102,-0.8096,-0.8099,-0.8118,-0.8109,-0.8038,-0.8028,-0.8018,-0.8012,-0.8118,-0.8118,-0.8184,-0.8185,-0.8185]},{"header":{"parameterUnit":"m.s-1","parameterCategory":1,"la1":30.2991,"la2":30.254,"lo1":-89.0895,"lo2":-89.0444,"dy":0.0017,"dx":0.0017,"nx":28,"ny":28,"refTime":"2024-03-18T21:00:00:Z","depth":0,"parameterNumber":3,"parameterNumberName":"V-component_of_WINDS"},"data":[0,0,0,0,0,0,0,0,0,0,0,0,0,0,0,0,0,0,0,0,0,0,0,0,0,0,0,0,0,0,0,0,0,0,0,0,0,0,0,0,0,0,0,0,0,0,0,0,0,0,0,0,0,0,0,0,0,0,-1.9155,-1.9155,0,-1.919,-1.9191,-1.9191,-1.9172,-1.9171,-1.917,-1.9169,-1.9204,-1.9205,-1.9207,0,0,0,0,0,0,0,0,0,0,0,0,0,-1.9071,-1.9072,-1.9155,-1.9155,-1.9156,-1.919,-1.9191,-1.9191,-1.9172,-1.9171,-1.917,-1.9168,-1.9203,-1.9205,-1.9207,0,0,0,0,0,0,0,0,0,0,0,0,0,-1.9107,-1.9073,-1.9155,-1.915,-1.915,-1.919,-1.9191,-1.9191,-1.9172,-1.9171,-1.9169,-1.9168,-1.9202,-1.9205,-1.9208,-1.9253,0,0,-1.9216,-1.9217,0,0,0,0,0,0,0,0,-1.9105,-1.911,-1.9151,-1.9151,-1.9151,-1.9175,-1.9174,-1.9212,-1.9173,-1.9164,-1.9169,-1.9167,-1.9195,-1.9198,-1.9208,-1.9255,-1.9256,-1.9216,-1.9218,-1.9219,-1.922,0,0,0,0,0,0,0,-1.9102,-1.9108,-1.9169,-1.9151,-1.9151,-1.9147,-1.915,-1.9181,-1.9187,-1.9164,-1.9163,-1.9168,-1.9195,-1.9206,-1.9209,-1.9257,-1.9216,-1.9219,-1.922,-1.9221,-1.9345,-1.9346,0,0,0,0,0,0,-1.91,-1.9106,-1.9168,-1.917,-1.9124,-1.9149,-1.9153,-1.9169,-1.9187,-1.9188,-1.9169,-1.9167,-1.9202,-1.9206,-1.921,-1.9267,-1.9219,-1.9222,-1.9223,-1.9343,-1.9345,-1.9347,0,0,0,0,0,0,-1.9098,-1.9106,-1.9166,-1.9138,-1.9145,-1.9152,-1.917,-1.917,-1.9181,-1.919,-1.9191,-1.9179,-1.9201,-1.9206,-1.9243,-1.9267,-1.9223,-1.9225,-1.9341,-1.9344,-1.9346,-1.9379,0,0,0,0,0,0,-1.9096,-1.9105,-1.9123,-1.9138,-1.9147,-1.9199,-1.9171,-1.9172,-1.9186,-1.9183,-1.9199,-1.9201,-1.92,-1.9239,-1.9246,-1.927,-1.9227,-1.9339,-1.9342,-1.9345,-1.9376,-1.9382,-1.9388,0,0,0,0,0,-1.9093,-1.913,-1.9124,-1.9131,-1.9169,-1.9201,-1.9205,-1.9204,-1.9188,-1.9206,-1.9212,-1.92,-1.9263,-1.9243,-1.925,-1.9276,-1.9338,-1.9341,-1.9345,-1.9373,-1.9381,-1.9387,0,0,0,0,0,0,-1.9116,-1.9132,-1.9125,-1.9168,-1.9183,-1.9197,-1.922,-1.9212,-1.9232,-1.9229,-1.9226,-1.9229,-1.9269,-1.9275,-1.9253,-1.9322,-1.9298,-1.9303,-1.9317,-1.9324,-1.933,-1.9328,-1.923,0,0,0,0,0,-1.9126,-1.9151,-1.9163,-1.92,-1.9208,-1.9213,-1.9226,-1.9224,-1.924,-1.9246,-1.9254,-1.927,-1.9293,-1.9309,-1.933,-1.9376,-1.938,-1.9397,-1.9403,-1.9408,-1.9413,-1.944,-1.9448,-1.9359,-1.9359,-1.9359,0,0,-1.9147,-1.9159,-1.9175,-1.9205,-1.9216,-1.9243,-1.9218,-1.9246,-1.9266,-1.925,-1.9286,-1.9293,-1.931,-1.9352,-1.9371,-1.9359,-1.9439,-1.9413,-1.9416,-1.9419,-1.9445,-1.9453,-1.9461,-1.9362,-1.9361,-1.9361,0,0,-1.92,-1.921,-1.9243,-1.9255,-1.9274,-1.9277,-1.9285,-1.93,-1.9305,-1.9341,-1.933,-1.9353,-1.9393,-1.9406,-1.9418,-1.9476,-1.9467,-1.9483,-1.9515,-1.9541,-1.9548,-1.9555,-1.9578,-1.9586,-1.9488,-1.9488,-1.9488,0,-1.9223,-1.9263,-1.9261,-1.9291,-1.9305,-1.9292,-1.9326,-1.9338,-1.9362,-1.9372,-1.9358,-1.9409,-1.9419,-1.9465,-1.948,-1.9489,-1.9499,-1.9482,-1.9547,-1.9554,-1.956,-1.9582,-1.959,-1.949,-1.949,-1.9489,-1.9489,0,-1.9293,-1.932,-1.9344,-1.937,-1.9386,-1.9418,-1.942,-1.9437,-1.9434,-1.9438,-1.9476,-1.9488,-1.9513,-1.9523,-1.9519,-1.9569,-1.9562,-1.9548,-1.9524,-1.957,-1.9591,-1.9599,-1.9493,-1.9492,-1.9491,-1.9491,0,0,-1.9361,-1.9385,-1.9395,-1.9407,-1.9426,-1.9448,-1.9479,-1.9504,-1.952,-1.9536,-1.9563,-1.9598,-1.9586,-1.9599,-1.9596,-1.9619,-1.9667,-1.9602,-1.9603,-1.9616,-1.9726,-1.9738,-1.9748,-1.966,-1.9662,-1.9663,-1.9725,0,-1.9417,-1.9473,-1.9472,-1.9524,-1.955,-1.9538,-1.9566,-1.9581,-1.9586,-1.9609,-1.9614,-1.964,-1.962,-1.9628,-1.965,-1.9657,-1.969,-1.9652,-1.9687,-1.9688,-1.9686,-1.9758,-1.9771,-1.9829,-1.9733,-1.9734,-1.9735,0,-1.9489,-1.9511,-1.9565,-1.9583,-1.9594,-1.9619,-1.9643,-1.9664,-1.9681,-1.9683,-1.9699,-1.9693,-1.9725,-1.9699,-1.9744,-1.9719,-1.9732,-1.9738,-1.974,-1.9745,-1.9716,-1.9768,-1.9847,-1.9857,-1.9747,-1.9746,-1.9746,0,-1.9537,-1.9579,-1.9618,-1.9628,-1.9648,-1.9667,-1.9676,-1.9691,-1.9707,-1.9728,-1.9738,-1.9762,-1.9775,-1.9794,-1.9795,-1.9775,-1.9841,-1.9814,-1.9845,-1.9845,-1.9861,-1.986,-1.9946,-1.9866,-1.9866,-1.9866,-1.9865,0,-1.9601,-1.9635,-1.964,-1.9664,-1.9703,-1.9701,-1.9739,-1.9747,-1.9761,-1.9787,-1.9777,-1.9801,-1.9799,-1.9824,-1.9824,-1.9863,-1.9868,-1.9872,-1.9872,-1.9874,-1.9874,-1.9885,-1.9882,-1.9868,-1.9867,-1.9867,-1.9866,0,-1.9661,-1.9665,-1.9708,-1.9724,-1.9729,-1.9757,-1.9771,-1.9794,-1.9798,-1.9831,-1.9839,-1.9845,-1.9874,-1.9876,-1.9908,-1.9909,-1.9956,-1.9951,-1.9951,-1.9951,-1.9983,-1.9981,-2.0081,-2.0095,-2.0003,-2.0004,-2.0004,0,-1.9703,-1.973,-1.975,-1.9767,-1.9777,-1.9804,-1.9821,-1.982,-1.9838,-1.986,-1.9881,-1.9908,-1.9931,-1.9977,-1.9985,-2.001,-2.0006,-2.004,-2.001,-2.0012,-2.001,-2.001,-2.0013,-2.0046,-2.0047,-2.0048,-2.0049,0,-1.9777,-1.9778,-1.9803,-1.9829,-1.9849,-1.9869,-1.9888,-1.9902,-1.9904,-1.9924,-1.9954,-1.9971,-2.0005,-2.0034,-2.0058,-2.0068,-2.0059,-2.0058,-2.0067,-2.007,-2.0071,-2.0074,-1.997,-2.0056,-2.0055,-2.0055,-2.0054,-2.0054,-1.9831,-1.9855,-1.9874,-1.9902,-1.9916,-1.9934,-1.9958,-1.9965,-1.999,-2.0019,-2.0016,-2.005,-2.0067,-2.01,-2.0111,-2.0137,-2.0126,-2.0138,-2.0142,-2.0146,-2.015,-2.0065,-2.0141,-2.0141,-2.0141,-2.0141,-2.0141,0,-1.9907,-1.9919,-1.9945,-1.9972,-1.9995,-1.9984,-2.0005,-2.0025,-2.0054,-2.0071,-2.0094,-2.0129,-2.0156,-2.0166,-2.0193,-2.0213,-2.021,-2.022,-2.022,-2.0223,-2.0157,-2.0148,-2.0222,-2.0222,-2.0222,-2.0222,-2.0222,-2.0222,-1.995,-1.9991,-1.9994,-2.0043,-2.0053,-2.0087,-2.01,-2.0117,-2.0131,-2.0171,-2.0194,-2.02,-2.0215,-2.0243,-2.0268,-2.027,-2.0282,-2.0295,-2.0295,-2.0235,-2.0227,-2.0219,-2.0211,-2.0296,-2.0297,-2.0359,-2.0359,-2.036]}]]